sat.trackr.live / text

‹ back to catalog

STARLINK-36847

NORAD 67910 · 2026-036G

PAYLOAD ACTIVE UNKNOWN

§ Identity

Operator
Country
US
Launch date
2026-02-22
Launch site
AFETR
Launch vehicle
Mass (kg)
RCS (m²)

Purposes: comms

External: N2YO · Heavens-Above · Gunter

§ Orbital elements

Epoch: 2026-05-25T03:29:12.789888Z

Period
94.27 min
Inclination
43.0004°
Eccentricity
0.0001343
Mean motion
15.27588923 rev/d
Perigee alt
482.1 km
Apogee alt
483.9 km
Semi-major
6,861.2 km
B*
7.2623e-4
RAAN
173.6022°
Arg perigee
250.0604°
Mean anomaly
110.0103°
Rev number
1,541

§ Raw data

STARLINK-368471 67910U 26036G   26145.14528692  .00019781  00000+0  72623-3 0  99932 67910  43.0004 173.6022 0001343 250.0604 110.0103 15.27588923 15412

JSON: /api/v1/satellites/67910 · /tle

For live sub-satellite position, see the globe view (requires WebGL).

§ Visibility from observer

Set your observer location to see the next 7 days of passes ≥ 10°. The values pass through the URL so the page stays shareable.

No JS? Fill the form by hand. The geolocation button needs JavaScript.